GW4651 Weather Reports


Display with metric or nautical units.
time (UTC)temp
F
wind
direction
speed
MPH
gust
MPH
rain 1hr
in
rain 24hr
in
rain mn
in
humidity
%
barometer
mb
20260508085605 59 194 14.0 24.0 0.00 0.00 0.00 67 1009.8
20260508085105 59 192 13.0 22.0 0.00 0.00 0.00 66 1009.8
20260508084605 59 199 11.0 23.0 0.00 0.00 0.00 66 1009.6
20260508084105 58 192 12.0 21.0 0.00 0.00 0.00 68 1009.8
20260508083604 58 188 14.0 25.0 0.00 0.00 0.00 69 1009.9
20260508083104 57 200 13.0 23.0 0.00 0.00 0.00 70 1010.1
20260508082605 58 190 13.0 21.0 0.00 0.00 0.00 68 1009.8
20260508082105 58 199 10.0 21.0 0.00 0.00 0.00 69 1009.9
20260508081605 57 217 9.0 20.0 0.00 0.00 0.00 69 1009.9
20260508080605 58 201 8.0 21.0 0.00 0.00 0.00 69 1009.6
20260508080106 57 189 12.0 21.0 0.00 0.00 0.00 69 1009.6
20260508075605 57 189 15.0 24.0 0.00 0.00 0.00 70 1009.6
20260508075105 57 192 11.0 21.0 0.00 0.00 0.00 70 1009.4
20260508074605 57 195 9.0 21.0 0.00 0.00 0.00 71 1009.5
20260508074105 57 179 11.0 18.0 0.00 0.00 0.00 70 1009.2
20260508073605 56 197 11.0 23.0 0.00 0.00 0.00 71 1009.7
20260508073105 56 188 9.0 22.0 0.00 0.00 0.00 71 1009.6
20260508072605 56 185 10.0 18.0 0.00 0.00 0.00 71 1009.6
20260508072104 55 200 10.0 21.0 0.00 0.00 0.00 71 1009.5
20260508071605 55 183 11.0 23.0 0.00 0.00 0.00 72 1009.8
20260508070604 55 168 10.0 18.0 0.00 0.00 0.00 73 1010.1
20260508070105 55 178 10.0 25.0 0.00 0.00 0.00 72 1009.9
20260508065605 54 168 11.0 20.0 0.00 0.00 0.00 72 1010.1
20260508065105 55 193 7.0 17.0 0.00 0.00 0.00 70 1010.1
20260508064604 55 201 8.0 16.0 0.00 0.00 0.00 69 1010.1
20260508064105 55 195 9.0 18.0 0.00 0.00 0.00 68 1010.2
20260508063606 54 205 8.0 15.0 0.00 0.00 0.00 69 1010.1
20260508063105 54 207 6.0 12.0 0.00 0.00 0.00 69 1010.0
20260508062604 54 214 6.0 13.0 0.00 0.00 0.00 69 1009.8
20260508062105 54 204 5.0 13.0 0.00 0.00 0.00 68 1009.9
20260508061605 54 210 3.0 6.0 0.00 0.00 0.00 68 1010.1
20260508061105 54 204 2.0 5.0 0.00 0.00 0.00 68 1010.0
20260508060105 53 72 5.0 7.0 0.00 0.00 0.00 69 1009.8
20260508055105 53 141 5.0 8.0 0.00 0.00 0.00 69 1009.6
20260508054605 53 121 3.0 8.0 0.00 0.00 0.00 70 1009.3
20260508054104 53 82 7.0 16.0 0.00 0.00 0.00 70 1009.3
20260508053605 53 108 7.0 18.0 0.00 0.00 0.00 69 1009.1
20260508053104 53 134 7.0 21.0 0.00 0.00 0.00 68 1009.2
20260508052106 53 170 5.0 13.0 0.00 0.00 0.00 68 1008.9
20260508051605 53 174 8.0 15.0 0.00 0.00 0.00 67 1009.1
20260508051104 53 177 5.0 7.0 0.00 0.00 0.00 69 1009.5
20260508050105 52 83 2.0 9.0 0.00 0.00 0.00 71 1009.9
20260508045604 53 205 5.0 10.0 0.00 0.00 0.00 71 1010.0
20260508044605 53 220 3.0 6.0 0.00 0.00 0.00 72 1009.7
20260508044105 53 283 2.0 6.0 0.00 0.00 0.00 72 1009.8
20260508043605 53 240 2.0 6.0 0.00 0.00 0.00 73 1009.6
20260508043104 53 166 3.0 7.0 0.00 0.00 0.00 73 1009.5
20260508042605 53 172 3.0 7.0 0.00 0.00 0.00 73 1009.5
20260508041604 53 172 4.0 9.0 0.00 0.00 0.00 74 1010.0
20260508041105 53 197 5.0 12.0 0.00 0.00 0.00 73 1010.1
20260508040605 53 194 6.0 9.0 0.00 0.00 0.00 74 1010.1
20260508040105 53 198 5.0 13.0 0.00 0.00 0.00 74 1010.1
20260508035104 53 207 5.0 9.0 0.00 0.00 0.00 74 1010.1
20260508034605 53 206 5.0 10.0 0.00 0.00 0.00 74 1010.1
20260508034105 53 202 6.0 10.0 0.00 0.00 0.00 74 1010.1
20260508033604 53 189 6.0 13.0 0.00 0.00 0.00 74 1010.1
20260508032604 53 200 7.0 10.0 0.00 0.00 0.00 74 1010.2
20260508032104 53 188 5.0 12.0 0.00 0.00 0.00 74 1009.9
20260508031605 53 196 6.0 13.0 0.00 0.00 0.00 73 1010.2
20260508031104 53 197 7.0 13.0 0.00 0.00 0.00 73 1010.1
20260508030605 53 192 7.0 13.0 0.00 0.00 0.00 72 1010.1
20260508030104 53 196 9.0 15.0 0.00 0.00 0.00 72 1010.1
20260508025604 53 204 6.0 15.0 0.00 0.00 0.00 72 1010.0
20260508025104 54 194 9.0 16.0 0.00 0.00 0.00 71 1010.0
20260508024605 54 202 7.0 12.0 0.00 0.00 0.00 70 1009.9
20260508024104 53 197 5.0 10.0 0.00 0.00 0.00 68 1009.9
20260508023106 54 181 5.0 13.0 0.00 0.00 0.00 66 1009.9
20260508022605 53 151 2.0 5.0 0.00 0.00 0.00 66 1009.7
20260508022105 54 205 1.0 5.0 0.00 0.00 0.00 65 1009.7
20260508021605 54 170 2.0 5.0 0.00 0.00 0.00 65 1009.9
20260508020606 54 201 5.0 7.0 0.00 0.00 0.00 65 1009.9
20260508020106 54 177 4.0 7.0 0.00 0.00 0.00 65 1009.5
20260508015104 54 223 3.0 9.0 0.00 0.00 0.00 64 1009.6
20260508014604 54 192 2.0 7.0 0.00 0.00 0.00 62 1009.4
20260508014105 54 16 3.0 8.0 0.00 0.00 0.00 62 1009.4
20260508013604 55 107 3.0 6.0 0.00 0.00 0.00 62 1009.3
20260508013104 55 109 3.0 7.0 0.00 0.00 0.00 62 1009.7
20260508012606 55 137 3.0 9.0 0.00 0.00 0.00 62 1009.7
20260508012105 55 193 3.0 12.0 0.00 0.00 0.00 61 1009.5
20260508011604 55 123 3.0 9.0 0.00 0.00 0.00 61 1009.5
20260508011104 54 107 3.0 9.0 0.00 0.00 0.00 62 1009.5
20260508010604 54 115 3.0 9.0 0.00 0.00 0.00 63 1009.7
20260508010105 54 131 4.0 12.0 0.00 0.00 0.00 63 1009.7
20260508005604 54 200 3.0 9.0 0.00 0.00 0.00 62 1009.8
20260508005106 54 110 5.0 8.0 0.00 0.00 0.00 61 1009.9
20260508004104 55 200 3.0 9.0 0.00 0.00 0.00 61 1010.0
20260508003104 55 116 7.0 13.0 0.00 0.00 0.00 60 1010.1
20260508002604 55 83 4.0 8.0 0.00 0.00 0.00 60 1010.0
20260508002104 55 112 5.0 9.0 0.00 0.00 0.00 61 1010.3
20260508001605 55 175 3.0 10.0 0.00 0.00 0.00 62 1010.4
20260508001105 55 193 3.0 7.0 0.00 0.00 0.00 63 1010.5
20260508000604 55 215 3.0 6.0 0.00 0.00 0.00 63 1010.4
20260508000105 55 146 2.0 5.0 0.00 0.00 0.00 63 1010.3
20260507235106 55 7 1.0 3.0 0.00 0.00 0.00 65 1010.8
20260507233604 56 214 3.0 5.0 0.00 0.00 0.00 63 1010.8
20260507232605 56 74 5.0 5.0 0.00 0.00 0.00 63 1010.8
20260507231604 56 67 6.0 6.0 0.00 0.00 0.00 63 1010.9
20260507230104 56 132 3.0 5.0 0.00 0.00 0.00 63 1011.1
20260507225602 56 211 2.0 3.0 0.00 0.00 0.00 62 1011.0